AXM5139 WBKK-WMKK

Flight info

Callsign AXM5139
Flight time 2h 11m
Altitude 38000
Route EGENU2F VIDIP M758 IDSEL Y335 PADLI Y343 SAROX SAROX1J
Aircraft A20N/M-SDE2E3FGHIRWXY/LB1

Departure

Time 2026-04-23 12:59
Airport Kota Kinabalu International Airport (WBKK)

Arrival

Time 2026-04-23 15:10
Airport Kuala Lumpur International Airport (WMKK)
Time Latitude Longitude Altitude Speed Heading
2026-04-23 12:35 5.92632 116.05054 28 ft 0 kts 113°
2026-04-23 12:49 5.92634 116.05051 28 ft 2 kts 113°
2026-04-23 12:49 5.92639 116.05038 8 ft 2 kts 113°
2026-04-23 12:49 5.92645 116.05024 28 ft 2 kts 113°
2026-04-23 12:50 5.92651 116.05010 28 ft 2 kts 113°
2026-04-23 12:50 5.92658 116.04999 28 ft 2 kts 145°
2026-04-23 12:50 5.92671 116.04993 28 ft 2 kts 169°
2026-04-23 12:50 5.92681 116.04991 28 ft 0 kts 186°
2026-04-23 12:53 5.92680 116.04991 28 ft 1 kts 186°
2026-04-23 12:53 5.92664 116.04985 28 ft 4 kts 200°
2026-04-23 12:53 5.92615 116.04966 28 ft 11 kts 202°
2026-04-23 12:54 5.92469 116.04904 28 ft 10 kts 204°
2026-04-23 12:54 5.92398 116.04871 28 ft 8 kts 217°
2026-04-23 12:54 5.92401 116.04818 29 ft 9 kts 295°
2026-04-23 12:54 5.92402 116.04753 28 ft 11 kts 239°
2026-04-23 12:55 5.92333 116.04717 28 ft 12 kts 201°
2026-04-23 12:55 5.92245 116.04682 28 ft 14 kts 202°
2026-04-23 12:55 5.92148 116.04639 28 ft 16 kts 204°
2026-04-23 12:55 5.92050 116.04596 28 ft 18 kts 203°
2026-04-23 12:56 5.91940 116.04552 28 ft 17 kts 202°
2026-04-23 12:56 5.91840 116.04511 28 ft 15 kts 202°
2026-04-23 12:56 5.91786 116.04438 28 ft 14 kts 286°
2026-04-23 12:56 5.91793 116.04420 28 ft 0 kts 296°
2026-04-23 12:57 5.91801 116.04404 28 ft 4 kts 295°
2026-04-23 12:57 5.91818 116.04368 28 ft 7 kts 297°
2026-04-23 12:58 5.91855 116.04331 28 ft 8 kts 353°
2026-04-23 12:58 5.91916 116.04352 28 ft 14 kts 22°
2026-04-23 12:58 5.92217 116.04479 28 ft 86 kts 22°
2026-04-23 12:58 5.92968 116.04797 32 ft 148 kts 22°
2026-04-23 12:59 5.93843 116.05161 581 ft 145 kts 22°
2026-04-23 12:59 5.94738 116.05519 1120 ft 155 kts 21°
2026-04-23 12:59 5.95752 116.05908 1764 ft 156 kts 21°
2026-04-23 12:59 5.96864 116.06077 2242 ft 174 kts 348°
2026-04-23 13:00 5.97936 116.05427 2668 ft 193 kts 308°
2026-04-23 13:00 5.98384 116.04464 2999 ft 208 kts 279°
2026-04-23 13:00 5.98320 116.03227 3326 ft 224 kts 255°
2026-04-23 13:00 5.97880 116.01651 3718 ft 246 kts 252°
2026-04-23 13:01 5.97359 115.99935 4140 ft 268 kts 252°
2026-04-23 13:01 5.96839 115.98225 4814 ft 276 kts 252°
2026-04-23 13:01 5.96495 115.97076 5352 ft 278 kts 252°
2026-04-23 13:01 5.95919 115.95130 6248 ft 282 kts 252°
2026-04-23 13:02 5.95579 115.93972 6736 ft 284 kts 252°
2026-04-23 13:02 5.94897 115.91638 7718 ft 288 kts 252°
2026-04-23 13:02 5.94331 115.89696 8505 ft 292 kts 252°
2026-04-23 13:02 5.93805 115.87897 9251 ft 294 kts 252°
2026-04-23 13:03 5.93224 115.85912 10003 ft 298 kts 252°
2026-04-23 13:03 5.92677 115.84047 10337 ft 316 kts 252°
2026-04-23 13:03 5.92032 115.81852 10544 ft 339 kts 252°
2026-04-23 13:03 5.91355 115.79547 10952 ft 351 kts 252°
2026-04-23 13:04 5.90664 115.77188 11643 ft 355 kts 252°
2026-04-23 13:04 5.90032 115.75030 12254 ft 358 kts 252°
2026-04-23 13:04 5.89340 115.72667 12904 ft 363 kts 253°
2026-04-23 13:04 5.88623 115.70224 13581 ft 367 kts 253°
2026-04-23 13:05 5.87898 115.67753 14159 ft 371 kts 253°
2026-04-23 13:05 5.87209 115.65404 14717 ft 374 kts 253°
2026-04-23 13:05 5.86469 115.62882 15289 ft 378 kts 253°
2026-04-23 13:05 5.85722 115.60338 15841 ft 382 kts 253°
2026-04-23 13:06 5.84463 115.56050 16774 ft 388 kts 253°
2026-04-23 13:06 5.83435 115.52549 17488 ft 393 kts 253°
2026-04-23 13:06 5.82921 115.50803 17834 ft 396 kts 253°
2026-04-23 13:07 5.81874 115.47240 18491 ft 400 kts 253°
2026-04-23 13:07 5.81352 115.45462 18790 ft 402 kts 253°
2026-04-23 13:07 5.80557 115.42756 19242 ft 405 kts 253°
2026-04-23 13:07 5.79794 115.40162 19667 ft 408 kts 253°
2026-04-23 13:08 5.79055 115.37650 20076 ft 411 kts 253°
2026-04-23 13:08 5.78296 115.35070 20480 ft 414 kts 253°
2026-04-23 13:08 5.77508 115.32393 20916 ft 417 kts 253°
2026-04-23 13:08 5.76684 115.29592 21368 ft 420 kts 253°
2026-04-23 13:09 5.75851 115.26764 21780 ft 424 kts 253°
2026-04-23 13:09 5.75139 115.24346 22151 ft 426 kts 253°
2026-04-23 13:09 5.74355 115.21683 22544 ft 429 kts 253°
2026-04-23 13:09 5.73505 115.18798 22951 ft 433 kts 253°
2026-04-23 13:10 5.72649 115.15891 23375 ft 436 kts 253°
2026-04-23 13:10 5.71857 115.13206 23713 ft 438 kts 253°
2026-04-23 13:10 5.70962 115.10170 24104 ft 440 kts 253°
2026-04-23 13:10 5.70092 115.07218 24472 ft 442 kts 253°
2026-04-23 13:11 5.69217 115.04251 24841 ft 444 kts 253°
2026-04-23 13:11 5.68337 115.01269 25188 ft 446 kts 253°
2026-04-23 13:11 5.67464 114.98311 25537 ft 448 kts 253°
2026-04-23 13:11 5.66721 114.95794 25825 ft 450 kts 253°
2026-04-23 13:12 5.66015 114.93401 26093 ft 451 kts 253°
2026-04-23 13:12 5.65093 114.90279 26440 ft 454 kts 253°
2026-04-23 13:12 5.64195 114.87236 26760 ft 456 kts 253°
2026-04-23 13:12 5.63293 114.84182 27075 ft 458 kts 253°
2026-04-23 13:13 5.62500 114.81498 27344 ft 459 kts 253°
2026-04-23 13:13 5.61556 114.78305 27672 ft 461 kts 253°
2026-04-23 13:13 5.60641 114.75209 27965 ft 463 kts 253°
2026-04-23 13:13 5.59724 114.72105 28271 ft 465 kts 253°
2026-04-23 13:14 5.58802 114.68985 28553 ft 467 kts 253°
2026-04-23 13:14 5.57875 114.65853 28826 ft 469 kts 253°
2026-04-23 13:14 5.56945 114.62709 29111 ft 471 kts 253°
2026-04-23 13:14 5.56010 114.59547 29385 ft 473 kts 253°
2026-04-23 13:15 5.55073 114.56381 29635 ft 475 kts 253°
2026-04-23 13:15 5.54130 114.53196 29910 ft 477 kts 253°
2026-04-23 13:15 5.53185 114.50001 30144 ft 479 kts 253°
2026-04-23 13:15 5.52235 114.46793 30401 ft 480 kts 253°
2026-04-23 13:16 5.51312 114.43677 30621 ft 482 kts 253°
2026-04-23 13:16 5.50356 114.40449 30872 ft 483 kts 253°
2026-04-23 13:16 5.49399 114.37216 31172 ft 483 kts 253°
2026-04-23 13:16 5.48526 114.34270 31474 ft 482 kts 253°
2026-04-23 13:17 5.47571 114.31046 31811 ft 481 kts 252°
2026-04-23 13:17 5.46785 114.28393 32094 ft 480 kts 252°
2026-04-23 13:17 5.45932 114.25515 32393 ft 479 kts 252°
2026-04-23 13:17 5.45035 114.22490 32699 ft 478 kts 252°
2026-04-23 13:18 5.44102 114.19343 33007 ft 476 kts 252°
2026-04-23 13:18 5.43236 114.16425 33277 ft 475 kts 252°
2026-04-23 13:18 5.42294 114.13249 33587 ft 475 kts 252°
2026-04-23 13:18 5.41391 114.10069 33871 ft 474 kts 254°
2026-04-23 13:19 5.40576 114.06866 34117 ft 473 kts 255°
2026-04-23 13:19 5.39787 114.03668 34364 ft 472 kts 255°
2026-04-23 13:19 5.38995 114.00478 34605 ft 471 kts 255°
2026-04-23 13:19 5.38196 113.97297 34837 ft 470 kts 255°
2026-04-23 13:20 5.37389 113.94117 35052 ft 469 kts 255°
2026-04-23 13:20 5.36583 113.90957 35285 ft 468 kts 255°
2026-04-23 13:20 5.35773 113.87790 35518 ft 467 kts 255°
2026-04-23 13:20 5.34967 113.84641 35747 ft 466 kts 255°
2026-04-23 13:21 5.34161 113.81491 35970 ft 466 kts 255°
2026-04-23 13:21 5.33356 113.78346 36193 ft 465 kts 255°
2026-04-23 13:21 5.32553 113.75211 36432 ft 464 kts 255°
2026-04-23 13:21 5.31920 113.72738 36600 ft 463 kts 255°
2026-04-23 13:22 5.31153 113.69744 36800 ft 462 kts 255°
2026-04-23 13:22 5.30354 113.66624 37006 ft 462 kts 255°
2026-04-23 13:22 5.29556 113.63507 37211 ft 461 kts 255°
2026-04-23 13:22 5.28758 113.60392 37397 ft 460 kts 255°
2026-04-23 13:23 5.27962 113.57289 37583 ft 460 kts 255°
2026-04-23 13:23 5.27166 113.54182 37774 ft 459 kts 255°
2026-04-23 13:23 5.26369 113.51075 37870 ft 459 kts 255°
2026-04-23 13:24 5.24793 113.44930 37874 ft 457 kts 255°
2026-04-23 13:24 5.23196 113.38710 37879 ft 464 kts 255°
2026-04-23 13:25 5.21775 113.33175 37874 ft 470 kts 255°
2026-04-23 13:25 5.20299 113.27429 37877 ft 475 kts 255°
2026-04-23 13:26 5.19069 113.22642 37874 ft 475 kts 255°
2026-04-23 13:26 5.17417 113.16215 37871 ft 476 kts 255°
2026-04-23 13:27 5.15766 113.09792 37877 ft 476 kts 255°
2026-04-23 13:27 5.14114 113.03369 37873 ft 475 kts 255°
2026-04-23 13:28 5.12566 112.97356 37877 ft 475 kts 255°
2026-04-23 13:28 5.10913 112.90939 37876 ft 475 kts 255°
2026-04-23 13:29 5.09385 112.85003 37872 ft 475 kts 255°
2026-04-23 13:29 5.07783 112.78788 37873 ft 475 kts 255°
2026-04-23 13:30 5.06130 112.72378 37872 ft 475 kts 255°
2026-04-23 13:30 5.04478 112.65971 37878 ft 475 kts 255°
2026-04-23 13:31 5.01099 112.52876 37871 ft 475 kts 255°
2026-04-23 13:32 4.99441 112.46454 37871 ft 475 kts 255°
2026-04-23 13:32 4.97784 112.40042 37875 ft 475 kts 255°
2026-04-23 13:33 4.96156 112.33739 37878 ft 476 kts 255°
2026-04-23 13:33 4.94708 112.28142 37874 ft 475 kts 255°
2026-04-23 13:34 4.93210 112.22349 37874 ft 476 kts 255°
2026-04-23 13:34 4.91767 112.16772 37877 ft 476 kts 255°
2026-04-23 13:35 4.90276 112.11010 37876 ft 476 kts 255°
2026-04-23 13:35 4.88612 112.04584 37877 ft 476 kts 255°
2026-04-23 13:36 4.86948 111.98162 37879 ft 476 kts 255°
2026-04-23 13:36 4.85282 111.91730 37875 ft 476 kts 255°
2026-04-23 13:37 4.83617 111.85308 37879 ft 476 kts 255°
2026-04-23 13:37 4.81975 111.78869 37880 ft 477 kts 256°
2026-04-23 13:38 4.80346 111.72430 37883 ft 476 kts 255°
2026-04-23 13:38 4.78714 111.65995 37880 ft 477 kts 255°
2026-04-23 13:39 4.77156 111.59866 37882 ft 476 kts 255°
2026-04-23 13:39 4.75519 111.53426 37883 ft 477 kts 255°
2026-04-23 13:40 4.73879 111.46982 37881 ft 477 kts 255°
2026-04-23 13:40 4.72240 111.40539 37882 ft 477 kts 255°
2026-04-23 13:41 4.70711 111.34531 37879 ft 477 kts 255°
2026-04-23 13:41 4.69117 111.28271 37882 ft 477 kts 255°
2026-04-23 13:42 4.67668 111.22582 37883 ft 476 kts 255°
2026-04-23 13:42 4.66262 111.17065 37879 ft 477 kts 255°
2026-04-23 13:43 4.64667 111.10811 37881 ft 476 kts 255°
2026-04-23 13:43 4.63138 111.04815 37882 ft 477 kts 255°
2026-04-23 13:44 4.61547 110.98578 37881 ft 476 kts 255°
2026-04-23 13:44 4.59905 110.92144 37881 ft 476 kts 255°
2026-04-23 13:45 4.58541 110.86801 37881 ft 476 kts 255°
2026-04-23 13:45 4.56622 110.79289 37881 ft 476 kts 255°
2026-04-23 13:46 4.54982 110.72870 37882 ft 476 kts 255°
2026-04-23 13:46 4.53335 110.66429 37880 ft 477 kts 255°
2026-04-23 13:47 4.51970 110.61090 37881 ft 475 kts 255°
2026-04-23 13:47 4.50048 110.53577 37877 ft 476 kts 255°
2026-04-23 13:48 4.48406 110.47160 37877 ft 475 kts 255°
2026-04-23 13:48 4.46761 110.40738 37877 ft 476 kts 255°
2026-04-23 13:49 4.45201 110.34645 37882 ft 476 kts 255°
2026-04-23 13:49 4.43706 110.28807 37881 ft 476 kts 255°
2026-04-23 13:50 4.42301 110.23324 37876 ft 476 kts 255°
2026-04-23 13:50 4.40627 110.16794 37879 ft 476 kts 255°
2026-04-23 13:51 4.39396 110.11994 37877 ft 476 kts 255°
2026-04-23 13:51 4.37737 110.05523 37879 ft 476 kts 255°
2026-04-23 13:52 4.36087 109.99095 37878 ft 477 kts 255°
2026-04-23 13:52 4.34435 109.92663 37882 ft 477 kts 255°
2026-04-23 13:53 4.32783 109.86237 37878 ft 476 kts 255°
2026-04-23 13:53 4.31371 109.80742 37878 ft 477 kts 255°
2026-04-23 13:54 4.29719 109.74312 37875 ft 477 kts 255°
2026-04-23 13:54 4.28066 109.67880 37877 ft 476 kts 255°
2026-04-23 13:55 4.26414 109.61457 37882 ft 477 kts 255°
2026-04-23 13:55 4.24765 109.55064 37877 ft 465 kts 255°
2026-04-23 13:56 4.23153 109.48904 37880 ft 456 kts 254°
2026-04-23 13:56 4.21532 109.42715 37881 ft 460 kts 254°
2026-04-23 13:57 4.19913 109.36523 37880 ft 460 kts 255°
2026-04-23 13:57 4.18362 109.30586 37880 ft 460 kts 254°
2026-04-23 13:58 4.16810 109.24647 37882 ft 459 kts 254°
2026-04-23 13:58 4.15189 109.18451 37880 ft 460 kts 254°
2026-04-23 13:59 4.13565 109.12247 37878 ft 460 kts 254°
2026-04-23 13:59 4.11942 109.06046 37882 ft 460 kts 255°
2026-04-23 14:00 4.10593 109.00895 37882 ft 460 kts 255°
2026-04-23 14:00 4.08696 108.93651 37875 ft 460 kts 255°
2026-04-23 14:01 4.07073 108.87456 37879 ft 460 kts 255°
2026-04-23 14:01 4.05449 108.81257 37879 ft 460 kts 255°
2026-04-23 14:02 4.03825 108.75063 37882 ft 460 kts 255°
2026-04-23 14:02 4.02200 108.68862 37879 ft 460 kts 255°
2026-04-23 14:03 4.00586 108.62657 37881 ft 460 kts 255°
2026-04-23 14:03 3.98973 108.56454 37878 ft 460 kts 255°
2026-04-23 14:04 3.97360 108.50291 37883 ft 460 kts 255°
2026-04-23 14:04 3.95742 108.44087 37887 ft 461 kts 255°
2026-04-23 14:05 3.94127 108.37887 37885 ft 460 kts 255°
2026-04-23 14:05 3.92706 108.32430 37887 ft 461 kts 255°
2026-04-23 14:06 3.91309 108.27044 37883 ft 461 kts 255°
2026-04-23 14:06 3.89776 108.21141 37885 ft 461 kts 255°
2026-04-23 14:07 3.88271 108.15368 37884 ft 461 kts 255°
2026-04-23 14:07 3.85849 108.06094 37885 ft 461 kts 255°
2026-04-23 14:08 3.84228 107.99888 37884 ft 461 kts 255°
2026-04-23 14:08 3.82607 107.93681 37884 ft 461 kts 255°
2026-04-23 14:09 3.80987 107.87481 37883 ft 460 kts 255°
2026-04-23 14:09 3.79365 107.81278 37879 ft 460 kts 255°
2026-04-23 14:10 3.77743 107.75076 37878 ft 460 kts 255°
2026-04-23 14:10 3.76122 107.68875 37878 ft 460 kts 255°
2026-04-23 14:11 3.74499 107.62673 37877 ft 461 kts 255°
2026-04-23 14:11 3.72876 107.56472 37877 ft 461 kts 255°
2026-04-23 14:12 3.71251 107.50262 37872 ft 461 kts 255°
2026-04-23 14:12 3.69627 107.44061 37874 ft 461 kts 255°
2026-04-23 14:13 3.68274 107.38897 37880 ft 461 kts 255°
2026-04-23 14:13 3.67041 107.34190 37877 ft 461 kts 255°
2026-04-23 14:14 3.65603 107.28701 37878 ft 462 kts 255°
2026-04-23 14:14 3.64164 107.23211 37878 ft 462 kts 254°
2026-04-23 14:15 3.62698 107.17623 37883 ft 462 kts 255°
2026-04-23 14:15 3.61066 107.11398 37885 ft 462 kts 255°
2026-04-23 14:16 3.59433 107.05169 37884 ft 462 kts 255°
2026-04-23 14:16 3.57875 106.99234 37886 ft 463 kts 255°
2026-04-23 14:17 3.56382 106.92967 37885 ft 463 kts 260°
2026-04-23 14:17 3.55825 106.86546 37886 ft 463 kts 266°
2026-04-23 14:18 3.55502 106.80106 37887 ft 463 kts 266°
2026-04-23 14:18 3.55189 106.74097 37885 ft 463 kts 266°
2026-04-23 14:19 3.54851 106.67655 37886 ft 463 kts 266°
2026-04-23 14:19 3.54514 106.61208 37884 ft 463 kts 266°
2026-04-23 14:20 3.54182 106.54772 37881 ft 463 kts 266°
2026-04-23 14:20 3.53850 106.48334 37882 ft 463 kts 266°
2026-04-23 14:21 3.53520 106.41939 37884 ft 463 kts 266°
2026-04-23 14:21 3.53273 106.37160 37884 ft 463 kts 266°
2026-04-23 14:22 3.53049 106.32794 37881 ft 463 kts 267°
2026-04-23 14:22 3.52786 106.27487 37886 ft 463 kts 266°
2026-04-23 14:23 3.52486 106.21559 37881 ft 463 kts 266°
2026-04-23 14:23 3.52192 106.15785 37883 ft 462 kts 266°
2026-04-23 14:24 3.51898 106.09983 37878 ft 462 kts 266°
2026-04-23 14:24 3.51571 106.03600 37879 ft 462 kts 266°
2026-04-23 14:25 3.51242 105.97177 37878 ft 462 kts 266°
2026-04-23 14:25 3.50915 105.90754 37876 ft 462 kts 267°
2026-04-23 14:26 3.50588 105.84335 37874 ft 462 kts 266°
2026-04-23 14:26 3.50258 105.77913 37870 ft 462 kts 267°
2026-04-23 14:27 3.49937 105.71495 37872 ft 462 kts 267°
2026-04-23 14:27 3.49673 105.66207 37873 ft 462 kts 267°
2026-04-23 14:28 3.49351 105.59785 37875 ft 462 kts 267°
2026-04-23 14:28 3.49043 105.53673 37872 ft 462 kts 267°
2026-04-23 14:29 3.48718 105.47246 37876 ft 462 kts 267°
2026-04-23 14:29 3.48395 105.40822 37877 ft 462 kts 267°
2026-04-23 14:30 3.48155 105.36051 37878 ft 463 kts 267°
2026-04-23 14:30 3.47886 105.30745 37878 ft 463 kts 267°
2026-04-23 14:31 3.47603 105.25177 37878 ft 463 kts 267°
2026-04-23 14:31 3.47282 105.18847 37881 ft 463 kts 267°
2026-04-23 14:32 3.46953 105.12404 37879 ft 463 kts 267°
2026-04-23 14:32 3.46651 105.06469 37878 ft 463 kts 267°
2026-04-23 14:33 3.46354 105.00648 37876 ft 463 kts 267°
2026-04-23 14:33 3.46041 104.94520 37873 ft 463 kts 267°
2026-04-23 14:34 3.45712 104.88077 37876 ft 463 kts 267°
2026-04-23 14:34 3.45382 104.81648 37874 ft 463 kts 267°
2026-04-23 14:35 3.45052 104.75203 37875 ft 463 kts 267°
2026-04-23 14:35 3.44721 104.68759 37874 ft 463 kts 267°
2026-04-23 14:36 3.44389 104.62318 37874 ft 464 kts 267°
2026-04-23 14:36 3.44058 104.55879 37877 ft 464 kts 267°
2026-04-23 14:37 3.43727 104.49432 37876 ft 464 kts 267°
2026-04-23 14:37 3.43406 104.43023 37876 ft 464 kts 267°
2026-04-23 14:38 3.43090 104.36720 37876 ft 464 kts 267°
2026-04-23 14:38 3.42838 104.31716 37870 ft 464 kts 267°
2026-04-23 14:39 3.42529 104.25605 37872 ft 464 kts 267°
2026-04-23 14:39 3.42259 104.20262 37873 ft 464 kts 267°
2026-04-23 14:40 3.41963 104.14415 37872 ft 465 kts 267°
2026-04-23 14:40 3.41654 104.08289 37873 ft 464 kts 267°
2026-04-23 14:41 3.41335 104.01841 37873 ft 464 kts 267°
2026-04-23 14:41 3.40690 103.95430 37873 ft 463 kts 257°
2026-04-23 14:42 3.38544 103.89382 37868 ft 462 kts 242°
2026-04-23 14:42 3.35200 103.83907 37860 ft 461 kts 237°
2026-04-23 14:43 3.31943 103.78726 37861 ft 461 kts 237°
2026-04-23 14:43 3.28650 103.73486 37858 ft 461 kts 237°
2026-04-23 14:44 3.25589 103.68622 37857 ft 459 kts 237°
2026-04-23 14:44 3.22356 103.63486 37851 ft 458 kts 237°
2026-04-23 14:45 3.19068 103.58055 37851 ft 457 kts 241°
2026-04-23 14:45 3.17570 103.55234 37699 ft 458 kts 241°
2026-04-23 14:45 3.16652 103.53503 37477 ft 459 kts 241°
2026-04-23 14:46 3.15174 103.50717 36981 ft 459 kts 241°
2026-04-23 14:46 3.13680 103.47896 36482 ft 459 kts 241°
2026-04-23 14:46 3.12166 103.45039 36002 ft 459 kts 240°
2026-04-23 14:46 3.10688 103.42250 35522 ft 460 kts 240°
2026-04-23 14:47 3.09186 103.39417 35058 ft 462 kts 240°
2026-04-23 14:47 3.08000 103.37181 34699 ft 464 kts 240°
2026-04-23 14:47 3.06642 103.34619 34290 ft 465 kts 240°
2026-04-23 14:47 3.05247 103.31988 33876 ft 466 kts 240°
2026-04-23 14:48 3.03893 103.29436 33431 ft 467 kts 240°
2026-04-23 14:48 3.02521 103.26852 32978 ft 468 kts 240°
2026-04-23 14:48 3.00993 103.23974 32477 ft 469 kts 240°
2026-04-23 14:48 2.99463 103.21091 32002 ft 470 kts 240°
2026-04-23 14:49 2.97925 103.18194 31524 ft 472 kts 240°
2026-04-23 14:49 2.96383 103.15291 31058 ft 473 kts 240°
2026-04-23 14:49 2.94836 103.12376 30604 ft 475 kts 240°
2026-04-23 14:49 2.93287 103.09459 30142 ft 474 kts 240°
2026-04-23 14:50 2.92198 103.07409 29807 ft 473 kts 241°
2026-04-23 14:50 2.90708 103.04600 29294 ft 469 kts 241°
2026-04-23 14:50 2.89188 103.01738 28778 ft 464 kts 241°
2026-04-23 14:50 2.87932 102.99372 28353 ft 461 kts 241°
2026-04-23 14:51 2.86574 102.96814 27898 ft 457 kts 241°
2026-04-23 14:51 2.85085 102.94013 27399 ft 454 kts 241°
2026-04-23 14:51 2.83610 102.91230 26797 ft 453 kts 241°
2026-04-23 14:51 2.82124 102.88436 25869 ft 459 kts 241°
2026-04-23 14:52 2.80609 102.85595 24900 ft 464 kts 241°
2026-04-23 14:52 2.79096 102.82750 24248 ft 462 kts 241°
2026-04-23 14:52 2.77596 102.79928 23663 ft 457 kts 241°
2026-04-23 14:52 2.76111 102.77132 22986 ft 453 kts 241°
2026-04-23 14:53 2.75010 102.75059 22494 ft 449 kts 241°
2026-04-23 14:53 2.73553 102.72313 21848 ft 445 kts 241°
2026-04-23 14:53 2.72108 102.69595 21202 ft 440 kts 241°
2026-04-23 14:53 2.70678 102.66909 20579 ft 436 kts 241°
2026-04-23 14:54 2.69260 102.64244 19957 ft 432 kts 241°
2026-04-23 14:54 2.67860 102.61608 19369 ft 428 kts 241°
2026-04-23 14:54 2.66720 102.59461 18874 ft 424 kts 241°
2026-04-23 14:54 2.65445 102.57053 18341 ft 421 kts 241°
2026-04-23 14:55 2.64374 102.55036 17874 ft 417 kts 241°
2026-04-23 14:55 2.63150 102.52737 17305 ft 413 kts 241°
2026-04-23 14:55 2.61806 102.50212 16684 ft 408 kts 241°
2026-04-23 14:55 2.60498 102.47755 16085 ft 404 kts 240°
2026-04-23 14:56 2.59195 102.45312 15494 ft 393 kts 240°
2026-04-23 14:56 2.57914 102.42915 14932 ft 389 kts 241°
2026-04-23 14:56 2.56842 102.40899 14460 ft 386 kts 241°
2026-04-23 14:56 2.55663 102.38678 13951 ft 383 kts 241°
2026-04-23 14:57 2.54499 102.36486 13423 ft 380 kts 241°
2026-04-23 14:57 2.53261 102.34168 12827 ft 377 kts 241°
2026-04-23 14:57 2.52167 102.32116 12293 ft 374 kts 241°
2026-04-23 14:57 2.50948 102.29830 11709 ft 371 kts 241°
2026-04-23 14:58 2.49868 102.27797 11203 ft 368 kts 241°
2026-04-23 14:58 2.48668 102.25540 10638 ft 365 kts 241°
2026-04-23 14:58 2.47482 102.23305 10124 ft 362 kts 241°
2026-04-23 14:58 2.46330 102.21135 9686 ft 356 kts 241°
2026-04-23 14:59 2.45270 102.19142 9198 ft 352 kts 241°
2026-04-23 14:59 2.44227 102.17180 8755 ft 347 kts 241°
2026-04-23 14:59 2.43281 102.15398 8347 ft 344 kts 241°
2026-04-23 14:59 2.42266 102.13489 7910 ft 340 kts 241°
2026-04-23 15:00 2.41157 102.11402 7427 ft 336 kts 242°
2026-04-23 15:00 2.40063 102.09348 7013 ft 331 kts 242°
2026-04-23 15:00 2.39004 102.07358 6829 ft 319 kts 242°
2026-04-23 15:00 2.38101 102.05359 6419 ft 315 kts 256°
2026-04-23 15:01 2.38022 102.03238 6306 ft 300 kts 280°
2026-04-23 15:01 2.38629 102.01293 6206 ft 286 kts 289°
2026-04-23 15:01 2.39283 101.99460 6100 ft 274 kts 289°
2026-04-23 15:01 2.39908 101.97708 6020 ft 261 kts 289°
2026-04-23 15:02 2.40302 101.96601 6013 ft 250 kts 289°
2026-04-23 15:02 2.41050 101.94488 6013 ft 235 kts 289°
2026-04-23 15:02 2.41602 101.92924 6007 ft 240 kts 290°
2026-04-23 15:02 2.42163 101.91368 5911 ft 237 kts 292°
2026-04-23 15:03 2.42941 101.89911 5556 ft 241 kts 306°
2026-04-23 15:03 2.44020 101.88619 5142 ft 243 kts 311°
2026-04-23 15:03 2.45158 101.87394 4837 ft 239 kts 317°
2026-04-23 15:03 2.46359 101.86381 4522 ft 238 kts 324°
2026-04-23 15:04 2.47707 101.85419 4165 ft 238 kts 327°
2026-04-23 15:04 2.49081 101.84488 3805 ft 239 kts 327°
2026-04-23 15:04 2.49995 101.83871 3576 ft 239 kts 327°
2026-04-23 15:04 2.50899 101.83259 3343 ft 240 kts 327°
2026-04-23 15:05 2.52039 101.82486 3205 ft 233 kts 327°
2026-04-23 15:05 2.53275 101.81650 3117 ft 223 kts 327°
2026-04-23 15:05 2.54530 101.80802 2993 ft 214 kts 327°
2026-04-23 15:05 2.55740 101.79981 2877 ft 203 kts 327°
2026-04-23 15:06 2.56856 101.79227 2805 ft 184 kts 327°
2026-04-23 15:06 2.57855 101.78548 2710 ft 163 kts 327°
2026-04-23 15:06 2.58774 101.77929 2644 ft 161 kts 328°
2026-04-23 15:06 2.59692 101.77309 2497 ft 158 kts 328°
2026-04-23 15:07 2.60602 101.76692 2316 ft 157 kts 327°
2026-04-23 15:07 2.61512 101.76077 2134 ft 160 kts 327°
2026-04-23 15:07 2.62434 101.75453 1932 ft 160 kts 327°
2026-04-23 15:07 2.63349 101.74834 1732 ft 159 kts 327°
2026-04-23 15:08 2.64265 101.74214 1534 ft 159 kts 327°
2026-04-23 15:08 2.65186 101.73592 1326 ft 160 kts 327°
2026-04-23 15:08 2.66094 101.72976 1119 ft 154 kts 328°
2026-04-23 15:09 2.67812 101.71814 772 ft 154 kts 328°
2026-04-23 15:09 2.68623 101.71267 618 ft 153 kts 327°
2026-04-23 15:09 2.69481 101.70686 412 ft 148 kts 327°
2026-04-23 15:09 2.70260 101.70147 217 ft 154 kts 324°
2026-04-23 15:10 2.70839 101.69753 93 ft 149 kts 327°
2026-04-23 15:10 2.71914 101.69034 39 ft 122 kts 326°
2026-04-23 15:10 2.72397 101.68708 37 ft 58 kts 326°
2026-04-23 15:10 2.72651 101.68537 39 ft 38 kts 326°
2026-04-23 15:11 2.72737 101.68480 39 ft 15 kts 328°
2026-04-23 15:11 2.72839 101.68436 39 ft 18 kts 344°
2026-04-23 15:11 2.72971 101.68404 36 ft 21 kts 349°
2026-04-23 15:11 2.73093 101.68386 36 ft 11 kts 352°
2026-04-23 15:12 2.73102 101.68385 38 ft 4 kts 352°
2026-04-23 15:12 2.73181 101.68373 38 ft 16 kts 348°
2026-04-23 15:12 2.73277 101.68361 36 ft 9 kts 28°
2026-04-23 15:12 2.73280 101.68363 36 ft 0 kts 31°
2026-04-23 15:17 2.73288 101.68367 38 ft 4 kts 31°
2026-04-23 15:17 2.73313 101.68386 39 ft 5 kts 36°
2026-04-23 15:17 2.73350 101.68393 40 ft 7 kts 346°
2026-04-23 15:17 2.73399 101.68368 40 ft 7 kts 325°
2026-04-23 15:18 2.73450 101.68333 39 ft 10 kts 326°
2026-04-23 15:18 2.73503 101.68297 38 ft 9 kts 326°
2026-04-23 15:18 2.73550 101.68266 39 ft 8 kts 327°
2026-04-23 15:18 2.73592 101.68239 39 ft 7 kts 327°
2026-04-23 15:19 2.73627 101.68216 39 ft 5 kts 327°
2026-04-23 15:19 2.73657 101.68198 39 ft 5 kts 328°
2026-04-23 15:19 2.73680 101.68183 39 ft 4 kts 328°
2026-04-23 15:19 2.73699 101.68171 39 ft 3 kts 328°
2026-04-23 15:20 2.73708 101.68165 39 ft 2 kts 324°
2026-04-23 15:20 2.73719 101.68157 38 ft 1 kts 323°
2026-04-23 15:20 2.73721 101.68156 38 ft 0 kts 323°
2026-04-23 15:21 2.73722 101.68155 38 ft 1 kts 323°
2026-04-23 15:21 2.73748 101.68136 39 ft 5 kts 324°
2026-04-23 15:21 2.73778 101.68115 38 ft 5 kts 324°
2026-04-23 15:21 2.73804 101.68096 39 ft 4 kts 325°
2026-04-23 15:22 2.73837 101.68074 39 ft 7 kts 326°
2026-04-23 15:22 2.73876 101.68048 39 ft 7 kts 326°
2026-04-23 15:22 2.73913 101.68031 38 ft 5 kts 353°
2026-04-23 15:22 2.73941 101.68045 39 ft 5 kts 45°
2026-04-23 15:23 2.73960 101.68066 41 ft 6 kts 48°
2026-04-23 15:23 2.73995 101.68121 41 ft 12 kts 60°
2026-04-23 15:23 2.74038 101.68177 42 ft 12 kts 54°
2026-04-23 15:23 2.74078 101.68237 42 ft 3 kts 57°
2026-04-23 15:24 2.74096 101.68272 39 ft 7 kts 91°
2026-04-23 15:24 2.74081 101.68292 42 ft 3 kts 145°
2026-04-23 15:24 2.74068 101.68301 42 ft 3 kts 146°
2026-04-23 15:24 2.74066 101.68302 42 ft 0 kts 146°